TimePST,TemperatureF,Dew PointF,Humidity,Sea Level PressureIn,VisibilityMPH,Wind Direction,Wind SpeedMPH,Gust SpeedMPH,PrecipitationIn,Events,Conditions,WindDirDegrees,DateUTC
1:53 AM,32.0,25.0,75,30.11,10.0,ESE,5.8,-,N/A,,Clear,110,2013-02-18 09:53:00
2:53 AM,32.0,25.0,75,30.09,10.0,Calm,Calm,-,N/A,,Partly Cloudy,0,2013-02-18 10:53:00
4:53 AM,30.9,25.0,79,30.06,10.0,Calm,Calm,-,N/A,,Mostly Cloudy,0,2013-02-18 12:53:00
5:53 AM,30.9,25.0,79,30.04,10.0,Calm,Calm,-,N/A,,Mostly Cloudy,0,2013-02-18 13:53:00
6:53 AM,30.9,25.0,79,30.03,10.0,Calm,Calm,-,N/A,,Mostly Cloudy,0,2013-02-18 14:53:00
7:53 AM,33.1,27.0,78,30.04,10.0,Calm,Calm,-,N/A,,Partly Cloudy,0,2013-02-18 15:53:00
8:53 AM,35.1,27.0,72,30.03,10.0,Calm,Calm,-,N/A,,Clear,0,2013-02-18 16:53:00
9:53 AM,37.0,28.0,70,30.02,10.0,Calm,Calm,-,N/A,,Clear,0,2013-02-18 17:53:00
10:53 AM,41.0,28.9,62,29.99,10.0,Calm,Calm,-,N/A,,Clear,0,2013-02-18 18:53:00
11:53 AM,43.0,28.9,58,29.98,10.0,Calm,Calm,-,N/A,,Scattered Clouds,0,2013-02-18 19:53:00
12:53 PM,43.0,28.9,58,29.95,10.0,Calm,Calm,-,N/A,,Partly Cloudy,0,2013-02-18 20:53:00
1:53 PM,44.1,30.0,58,29.93,10.0,Calm,Calm,-,N/A,,Overcast,0,2013-02-18 21:53:00
2:53 PM,46.0,30.0,54,29.92,10.0,NW,4.6,-,N/A,,Mostly Cloudy,320,2013-02-18 22:53:00
3:53 PM,46.9,30.0,52,29.91,10.0,Calm,Calm,-,N/A,,Overcast,0,2013-02-18 23:53:00
4:53 PM,46.9,30.0,52,29.88,10.0,Calm,Calm,-,N/A,,Overcast,0,2013-02-19 00:53:00
5:53 PM,44.1,28.9,55,29.87,10.0,WNW,3.5,-,N/A,,Overcast,290,2013-02-19 01:53:00
6:53 PM,42.1,28.9,60,29.86,10.0,Calm,Calm,-,N/A,,Mostly Cloudy,0,2013-02-19 02:53:00
7:53 PM,39.0,28.9,67,29.84,10.0,Calm,Calm,-,N/A,,Overcast,0,2013-02-19 03:53:00
8:53 PM,37.0,28.9,73,29.83,10.0,East,5.8,-,N/A,,Overcast,90,2013-02-19 04:53:00
9:53 PM,36.0,28.0,73,29.82,10.0,East,3.5,-,N/A,,Partly Cloudy,90,2013-02-19 05:53:00
10:53 PM,32.0,27.0,82,29.81,10.0,Calm,Calm,-,N/A,,Mostly Cloudy,0,2013-02-19 06:53:00
11:53 PM,30.0,26.1,85,29.81,10.0,ESE,3.5,-,N/A,,Scattered Clouds,110,2013-02-19 07:53:00